Weather History for Denver, CO

Change the Weather History Date:

Tuesday, September 3, 2013

  Actual Average Record
Temperature  
Mean Temperature 81 °F 68 °F  
Max Temperature 94 °F 83 °F 95 °F (1960)
Min Temperature 68 °F 53 °F 33 °F (1961)
Degree Days  
Heating Degree Days 0 1  
Month to date heating degree days 0 3  
Since 1 July heating degree days 0 19  
Cooling Degree Days 16 5  
Month to date cooling degree days 34 15  
Year to date cooling degree days 900 703  
Growing Degree Days 30 (Base 50)    
Moisture  
Dew Point 49 °F    
Average Humidity 38    
Maximum Humidity 57    
Minimum Humidity 19    
Precipitation  
Precipitation 0.00 in 0.03 in 1.00 in (1961)
Month to date precipitation 0.00 0.09  
Year to date precipitation 10.75 11.45  
Snow  
Snow 0.00 in - - ()
Month to date snowfall 0  
Since 1 July snowfall 0  
Since 1 September snowfall 0  
Snow Depth 0.00 in    
Sea Level Pressure  
Sea Level Pressure 29.88 in    
Wind  
Wind Speed 9 mph (SW)    
Max Wind Speed 16 mph    
Max Gust Speed 22 mph    
Visibility 10 miles    
Events      
T = Trace of Precipitation, MM = Missing Value Source: NWS Daily Summary

Daily Weather History Graph

Daily Weather History Graph

Search for Another Location

Airport:

Trip Planner

Search our weather history database for the weather conditions in past years. The results will help you decide how hot, cold, wet, or windy it might be!

Date:

Astronomy

Sep. 03, 2013 Rise Set
Actual Time 6:28 AM MDT 7:26 PM MDT
Civil Twilight 6:01 AM MDT 7:53 PM MDT
Nautical Twilight 5:28 AM MDT 8:26 PM MDT
Astronomical Twilight 4:54 AM MDT 9:00 PM MDT
Moon 4:45 AM MDT (9/3) 6:14 PM MDT (9/3)
Length of Visible Light 13h 52m
Length of Day
12h 57m
Waning Crescent, 3% of the Moon is Illuminated
Sep 3
Waning Crescent
Sep 5
New
Sep 12
First Quarter
Sep 19
Full
Sep 26
Last Quarter

Hourly Weather History & Observations

Time (MDT) Temp. Dew Point Humidity Pressure Visibility Wind Dir Wind Speed Gust Speed Precip Events Conditions
12:53 AM 69.1 °F 52.0 °F 54% 29.85 in 10.0 mi SSE 11.5 mph 21.9 mph N/A   Partly Cloudy
1:53 AM 69.1 °F 53.1 °F 57% 29.84 in 10.0 mi South 10.4 mph - N/A   Partly Cloudy
2:53 AM 72.0 °F 51.1 °F 48% 29.83 in 10.0 mi WSW 9.2 mph - N/A   Partly Cloudy
3:53 AM 70.0 °F 51.1 °F 51% 29.84 in 10.0 mi West 12.7 mph - N/A   Partly Cloudy
4:53 AM 68.0 °F 52.0 °F 56% 29.86 in 10.0 mi West 8.1 mph - N/A   Partly Cloudy
5:53 AM 68.0 °F 51.1 °F 55% 29.88 in 10.0 mi West 9.2 mph - N/A   Scattered Clouds
6:53 AM 69.1 °F 51.1 °F 53% 29.90 in 10.0 mi WSW 9.2 mph - N/A   Scattered Clouds
7:53 AM 71.1 °F 52.0 °F 51% 29.92 in 10.0 mi WSW 10.4 mph - N/A   Mostly Cloudy
8:53 AM 77.0 °F 52.0 °F 42% 29.93 in 10.0 mi West 9.2 mph - N/A   Scattered Clouds
9:53 AM 84.0 °F 50.0 °F 31% 29.91 in 10.0 mi NNE 3.5 mph - N/A   Scattered Clouds
10:53 AM 88.0 °F 51.1 °F 28% 29.91 in 10.0 mi NE 13.8 mph 17.3 mph N/A   Scattered Clouds
11:53 AM 89.1 °F 50.0 °F 26% 29.91 in 10.0 mi NE 13.8 mph 19.6 mph N/A   Scattered Clouds
12:53 PM 91.0 °F 48.0 °F 23% 29.89 in 10.0 mi Variable 6.9 mph - N/A   Scattered Clouds
1:53 PM 91.9 °F 48.0 °F 22% 29.87 in 10.0 mi Variable 6.9 mph - N/A   Scattered Clouds
2:53 PM 91.9 °F 45.0 °F 20% 29.85 in 10.0 mi Variable 6.9 mph - N/A   Scattered Clouds
3:53 PM 93.0 °F 45.0 °F 19% 29.83 in 10.0 mi East 6.9 mph - N/A   Mostly Cloudy
4:53 PM 91.0 °F 45.0 °F 20% 29.83 in 10.0 mi East 8.1 mph - N/A   Mostly Cloudy
5:53 PM 86.0 °F 46.0 °F 25% 29.86 in 10.0 mi ESE 5.8 mph - N/A   Mostly Cloudy
6:53 PM 84.0 °F 50.0 °F 31% 29.85 in 10.0 mi SSE 5.8 mph - N/A   Mostly Cloudy
7:53 PM 84.0 °F 48.0 °F 28% 29.86 in 10.0 mi WSW 10.4 mph - N/A   Mostly Cloudy
8:53 PM 80.1 °F 48.9 °F 34% 29.88 in 10.0 mi WSW 8.1 mph - N/A   Mostly Cloudy
9:53 PM 78.1 °F 48.0 °F 35% 29.90 in 10.0 mi WNW 11.5 mph - N/A   Mostly Cloudy
10:53 PM 78.1 °F 48.9 °F 36% 29.90 in 10.0 mi West 5.8 mph - N/A   Mostly Cloudy
11:53 PM 69.1 °F 50.0 °F 51% 29.92 in 10.0 mi South 4.6 mph - N/A   Mostly Cloudy